Location: Hylvaty SDH
(49.9612°N, 16.4057°E)
Time: 11:00:58
(UTC+01:00)

A-11 Canister half - Pass Details

Date: 11 October 2020
Orbit: 1526 x 1683 km, 47.3° (Epoch: 28 October)

Event Time Altitude Azimuth Distance (km) Brightness Sun altitude
Rises 00:50:36 0° 282° (WNW) 4,681 11.6 -47.1°
Enters shadow 00:52:22 - 280° (W) 4,110 11.3 -47.1°
Reaches altitude 10° 00:53:39 10° 279° (W) 3,702 - -47.1°
Maximum altitude 01:02:46 61° 202° (SSW) 1,725 - -46.9°
Drops below altitude 10° 01:12:06 10° 125° (SE) 3,783 - -46.7°
Sets 01:15:16 0° 122° (ESE) 4,788 - -46.6°
